EZY2PY EHRD-EDDF

Flight info

Callsign EZY2PY
Flight time N/A
Altitude 35000
Route LUNIX Z739 MISGO DCT DIXAT T149 LIPMI T911 COL/N0418F230 T911 ROLIS ROLIS5A
Aircraft A320/M-SDE3FGHIRWY/LB1

Departure

Time 2026-05-04 16:16
Airport Rotterdam The Hague Airport (EHRD)

Arrival

Time N/A
Airport Frankfurt Main Airport (EDDF)
Time Latitude Longitude Altitude Speed Heading
2026-05-04 15:57 51.95145 4.43290 1 ft 0 kts 327°
2026-05-04 16:12 51.95172 4.43242 1 ft 8 kts 277°
2026-05-04 16:12 51.95143 4.43135 1 ft 0 kts 243°
2026-05-04 16:13 51.95141 4.43127 1 ft 6 kts 243°
2026-05-04 16:13 51.95111 4.43029 1 ft 0 kts 245°
2026-05-04 16:14 51.95110 4.42975 1 ft 6 kts 283°
2026-05-04 16:14 51.95169 4.42888 1 ft 7 kts 327°
2026-05-04 16:15 51.95247 4.42920 2 ft 0 kts 57°
2026-05-04 16:16 51.95441 4.43401 0 ft 87 kts 56°
2026-05-04 16:16 51.97074 4.47576 976 ft 160 kts 58°
2026-05-04 16:17 51.98303 4.50913 1729 ft 199 kts 62°
2026-05-04 16:18 52.00742 4.57924 3126 ft 264 kts 47°
2026-05-04 16:18 52.02321 4.59499 3921 ft 268 kts 28°
2026-05-04 16:19 52.07109 4.64296 6146 ft 279 kts 49°
2026-05-04 16:19 52.09659 4.69105 6055 ft 280 kts 65°
2026-05-04 16:20 52.09520 4.78370 8616 ft 288 kts 108°
2026-05-04 16:20 52.08376 4.84620 8960 ft 288 kts 108°
2026-05-04 16:21 52.06650 4.94014 9984 ft 292 kts 107°
2026-05-04 16:22 52.05412 5.00765 10654 ft 335 kts 107°
2026-05-04 16:22 52.03227 5.12633 11626 ft 384 kts 107°
2026-05-04 16:23 52.00878 5.25325 13573 ft 398 kts 107°
2026-05-04 16:24 51.97613 5.42836 15933 ft 412 kts 107°
2026-05-04 16:25 51.95931 5.51793 17064 ft 418 kts 107°
2026-05-04 16:26 51.92472 5.70030 19073 ft 430 kts 108°
2026-05-04 16:26 51.89798 5.84046 20370 ft 438 kts 108°
2026-05-04 16:27 51.87980 5.93491 21201 ft 441 kts 109°
2026-05-04 16:28 51.84522 6.07316 22308 ft 444 kts 126°
2026-05-04 16:28 51.79028 6.17916 23281 ft 447 kts 134°
2026-05-04 16:29 51.70719 6.33104 24416 ft 455 kts 135°
2026-05-04 16:30 51.64389 6.44583 25196 ft 459 kts 135°
2026-05-04 16:31 51.60140 6.52277 25675 ft 461 kts 135°
2026-05-04 16:31 51.54441 6.62542 26235 ft 464 kts 135°
2026-05-04 16:32 51.48012 6.74111 26970 ft 462 kts 136°
2026-05-04 16:33 51.43720 6.81787 27428 ft 462 kts 136°
2026-05-04 16:33 51.39441 6.89468 27949 ft 462 kts 135°
2026-05-04 16:34 51.35390 6.97453 28527 ft 462 kts 132°
2026-05-04 16:34 51.33429 7.01523 28810 ft 461 kts 131°
2026-05-04 16:35 51.27346 7.13307 29725 ft 453 kts 142°
2026-05-04 16:35 51.19411 7.20905 29373 ft 440 kts 158°
2026-05-04 16:36 51.16656 7.23073 28155 ft 443 kts 157°
2026-05-04 16:36 51.11114 7.27588 25767 ft 452 kts 151°
2026-05-04 16:37 51.05832 7.32821 24180 ft 443 kts 151°
2026-05-04 16:37 51.03218 7.35372 23409 ft 439 kts 151°
2026-05-04 16:37 50.98060 7.40373 21817 ft 430 kts 151°
2026-05-04 16:38 50.93004 7.45265 20436 ft 421 kts 151°
2026-05-04 16:39 50.85619 7.52420 18524 ft 409 kts 151°
2026-05-04 16:39 50.80841 7.57027 17260 ft 400 kts 150°
2026-05-04 16:40 50.75934 7.61033 16049 ft 390 kts 159°
2026-05-04 16:40 50.70999 7.64305 14953 ft 384 kts 158°
2026-05-04 16:41 50.66123 7.67548 13936 ft 378 kts 158°
2026-05-04 16:41 50.58915 7.72344 12973 ft 374 kts 159°
2026-05-04 16:42 50.51831 7.77023 11128 ft 364 kts 159°
2026-05-04 16:43 50.47201 7.80081 10103 ft 360 kts 160°
2026-05-04 16:43 50.42845 7.83444 9993 ft 332 kts 149°
2026-05-04 16:43 50.41066 7.85591 9990 ft 314 kts 144°
2026-05-04 16:44 50.34759 7.93405 9993 ft 281 kts 146°
2026-05-04 16:45 50.31687 7.97176 9991 ft 281 kts 146°
2026-05-04 16:46 50.27105 8.02824 9991 ft 281 kts 145°
2026-05-04 16:46 50.24512 8.07492 9973 ft 287 kts 132°
2026-05-04 16:47 50.22066 8.12464 9988 ft 287 kts 132°
2026-05-04 16:47 50.19638 8.17391 9971 ft 286 kts 132°
2026-05-04 16:48 50.15989 8.24775 9979 ft 287 kts 132°
2026-05-04 16:48 50.14770 8.27233 9966 ft 286 kts 131°
2026-05-04 16:49 50.12369 8.32077 9971 ft 284 kts 131°
2026-05-04 16:49 50.10572 8.37588 9969 ft 297 kts 103°
2026-05-04 16:50 50.11211 8.43980 9977 ft 307 kts 72°
2026-05-04 16:50 50.12719 8.50159 9976 ft 302 kts 72°
2026-05-04 16:51 50.14121 8.55988 9974 ft 273 kts 73°
2026-05-04 16:51 50.14776 8.58739 9977 ft 270 kts 73°
2026-05-04 16:51 50.16072 8.64223 9977 ft 269 kts 73°
2026-05-04 16:52 50.17392 8.69773 9980 ft 270 kts 73°
2026-05-04 16:52 50.18048 8.72510 9982 ft 269 kts 73°
2026-05-04 16:53 50.19355 8.77962 9620 ft 266 kts 73°
2026-05-04 16:53 50.21282 8.86025 8570 ft 262 kts 73°
2026-05-04 16:54 50.21913 8.88679 8242 ft 260 kts 73°
2026-05-04 16:55 50.24409 8.99159 7009 ft 253 kts 73°
2026-05-04 16:55 50.24264 9.04315 6992 ft 239 kts 129°
2026-05-04 16:56 50.21552 9.06380 6404 ft 222 kts 191°
2026-05-04 16:56 50.17903 9.02017 5421 ft 227 kts 224°
2026-05-04 16:57 50.16776 9.00297 5133 ft 227 kts 223°
2026-05-04 16:57 50.14492 8.96952 5015 ft 221 kts 222°
2026-05-04 16:58 50.11875 8.91985 4797 ft 187 kts 248°
2026-05-04 16:58 50.11442 8.90131 4550 ft 182 kts 249°
2026-05-04 16:59 50.10601 8.86537 4084 ft 172 kts 249°
2026-05-04 17:00 50.08960 8.79571 3170 ft 173 kts 251°
2026-05-04 17:00 50.07709 8.74274 2474 ft 175 kts 252°
2026-05-04 17:01 50.06877 8.70759 2006 ft 171 kts 252°
2026-05-04 17:01 50.06061 8.67315 1551 ft 167 kts 252°
2026-05-04 17:02 50.05251 8.63904 1101 ft 166 kts 253°
2026-05-04 17:02 50.04458 8.60590 654 ft 152 kts 253°
2026-05-04 17:03 50.04119 8.59131 467 ft 143 kts 253°
2026-05-04 17:03 50.03789 8.57708 372 ft 123 kts 249°